Location: Favalello
(42.2939°N, 9.2706°E)
Time: 19:45:30
(UTC+00:00)

STARLINK-46 - Pass Details

Date: 06 December 2019
Orbit: 225 x 314 km, 53.0° (Epoch: 27 January)

Event Time Altitude Azimuth Distance (km) Brightness Sun altitude
Rises 16:22:01 0° 218° (SW) 1,854 7.6 -6.0°
Reaches altitude 10° 16:23:52 10° 211° (SSW) 1,083 6.1 -6.3°
Maximum altitude 16:26:09 41° 138° (SE) 427 3.0 -6.7°
Drops below altitude 10° 16:28:38 10° 65° (ENE) 1,175 4.6 -7.1°
Enters shadow 16:28:39 10° 65° (ENE) 1,185 4.6 -7.1°
